| time (UTC) | temp F | wind direction | speed knots | gust knots | rain 1hr in | rain 24hr in | rain mn in | humidity % | barometer mb |
| 20260506191016 | 67 | 270 | 0.9 | 4.3 | 0.00 | 0.11 | 0.11 | 86 | 1010.9 |
| 20260506190016 | 67 | 45 | 0.9 | 3.5 | 0.00 | 0.11 | 0.11 | 87 | 1011.1 |
| 20260506185016 | 66 | 293 | 0.9 | 4.3 | 0.00 | 0.11 | 0.11 | 88 | 1011.3 |
| 20260506184016 | 66 | 293 | 0.9 | 5.2 | 0.00 | 0.11 | 0.11 | 88 | 1011.1 |
| 20260506183016 | 66 | 293 | 0.9 | 4.3 | 0.00 | 0.11 | 0.11 | 87 | 1011.3 |
| 20260506182016 | 66 | 293 | 1.7 | 6.1 | 0.00 | 0.11 | 0.11 | 86 | 1011.1 |
| 20260506181016 | 67 | 270 | 2.6 | 7.8 | 0.00 | 0.11 | 0.11 | 85 | 1011.7 |
| 20260506180016 | 67 | 270 | 0.9 | 6.1 | 0.00 | 0.11 | 0.11 | 86 | 1012.0 |
| 20260506175016 | 66 | 293 | 2.6 | 9.6 | 0.00 | 0.11 | 0.11 | 87 | 1011.8 |
| 20260506174016 | 66 | 293 | 1.7 | 5.2 | 0.00 | 0.11 | 0.11 | 88 | 1012.0 |
| 20260506173016 | 66 | 315 | 1.7 | 7.8 | 0.00 | 0.11 | 0.11 | 90 | 1011.9 |
| 20260506172016 | 65 | 293 | 0.9 | 7.0 | 0.00 | 0.11 | 0.11 | 90 | 1011.9 |
| 20260506171036 | 65 | 293 | 1.7 | 6.1 | 0.01 | 0.11 | 0.11 | 89 | 1011.7 |
| 20260506170016 | 65 | 270 | 1.7 | 4.3 | 0.01 | 0.11 | 0.11 | 90 | 1011.9 |
| 20260506165016 | 65 | 23 | 0.9 | 2.6 | 0.02 | 0.11 | 0.11 | 90 | 1012.1 |
| 20260506164016 | 65 | 270 | 0.9 | 6.1 | 0.02 | 0.11 | 0.11 | 91 | 1012.4 |
| 20260506163016 | 64 | 270 | 0.9 | 6.1 | 0.02 | 0.11 | 0.11 | 91 | 1012.4 |
| 20260506162016 | 64 | 68 | 0.9 | 4.3 | 0.02 | 0.11 | 0.11 | 91 | 1012.2 |
| 20260506161016 | 63 | 90 | 0.9 | 6.1 | 0.01 | 0.10 | 0.10 | 91 | 1012.1 |
| 20260506160016 | 63 | 113 | 0.9 | 3.5 | 0.01 | 0.10 | 0.10 | 91 | 1012.2 |
| 20260506155016 | 63 | 270 | 0.9 | 5.2 | 0.00 | 0.09 | 0.09 | 91 | 1012.1 |
| 20260506154016 | 63 | 68 | 1.7 | 4.3 | 0.00 | 0.09 | 0.09 | 92 | 1012.2 |
| 20260506153016 | 63 | 293 | 0.9 | 5.2 | 0.01 | 0.09 | 0.09 | 92 | 1012.4 |
| 20260506152036 | 63 | 90 | 0.9 | 3.5 | 0.03 | 0.09 | 0.09 | 93 | 1012.5 |
| 20260506151016 | 62 | 113 | 0.9 | 2.6 | 0.06 | 0.09 | 0.09 | 92 | 1012.7 |
| 20260506150016 | 63 | 0.0 | 1.7 | 0.08 | 0.09 | 0.09 | 93 | 1012.8 | |
| 20260506145016 | 62 | 0.0 | 3.5 | 0.09 | 0.09 | 0.09 | 92 | 1013.0 | |
| 20260506144016 | 62 | 0 | 0.9 | 2.6 | 0.09 | 0.09 | 0.09 | 91 | 1012.9 |
| 20260506143016 | 62 | 90 | 0.9 | 2.6 | 0.08 | 0.08 | 0.08 | 90 | 1013.1 |
| 20260506142016 | 63 | 338 | 0.9 | 2.6 | 0.06 | 0.06 | 0.06 | 88 | 1013.2 |
| 20260506141016 | 64 | 293 | 0.9 | 3.5 | 0.03 | 0.03 | 0.03 | 86 | 1013.0 |
| 20260506140016 | 64 | 0.0 | 1.7 | 0.01 | 0.01 | 0.01 | 84 | 1012.8 | |
| 20260506135016 | 65 | 90 | 1.7 | 7.0 | 0.00 | 0.00 | 0.00 | 81 | 1012.9 |
| 20260506134016 | 66 | 113 | 1.7 | 7.0 | 0.00 | 0.00 | 0.00 | 78 | 1012.9 |
| 20260506133016 | 66 | 338 | 0.9 | 5.2 | 0.00 | 0.00 | 0.00 | 78 | 1012.9 |
| 20260506132016 | 66 | 270 | 0.9 | 6.1 | 0.00 | 0.00 | 0.00 | 78 | 1012.8 |
| 20260506131016 | 65 | 270 | 0.9 | 7.0 | 0.00 | 0.00 | 0.00 | 78 | 1012.8 |
| 20260506130036 | 65 | 113 | 1.7 | 6.1 | 0.00 | 0.00 | 0.00 | 79 | 1012.7 |
| 20260506125036 | 65 | 270 | 0.9 | 6.1 | 0.00 | 0.00 | 0.00 | 80 | 1012.7 |
| 20260506124016 | 65 | 45 | 1.7 | 9.6 | 0.00 | 0.00 | 0.00 | 80 | 1012.6 |
| 20260506123016 | 65 | 90 | 0.9 | 7.8 | 0.00 | 0.00 | 0.00 | 79 | 1012.7 |
| 20260506122036 | 66 | 0.0 | 1.7 | 0.00 | 0.00 | 0.00 | 78 | 1012.6 | |
| 20260506121016 | 66 | 315 | 1.7 | 7.0 | 0.00 | 0.00 | 0.00 | 77 | 1012.6 |
| 20260506120016 | 66 | 0 | 1.7 | 7.8 | 0.00 | 0.00 | 0.00 | 77 | 1012.5 |
| 20260506115016 | 66 | 68 | 0.9 | 3.5 | 0.00 | 0.00 | 0.00 | 77 | 1012.5 |
| 20260506114016 | 65 | 293 | 1.7 | 7.0 | 0.00 | 0.00 | 0.00 | 77 | 1012.5 |
| 20260506113036 | 65 | 68 | 0.9 | 3.5 | 0.00 | 0.00 | 0.00 | 77 | 1012.4 |
| 20260506112016 | 65 | 0.0 | 1.7 | 0.00 | 0.00 | 0.00 | 77 | 1012.5 | |
| 20260506110016 | 65 | 90 | 1.7 | 4.3 | 0.00 | 0.00 | 0.00 | 77 | 1012.3 |
| 20260506105016 | 65 | 293 | 0.9 | 4.3 | 0.00 | 0.00 | 0.00 | 77 | 1012.4 |
| 20260506104016 | 64 | 68 | 1.7 | 6.1 | 0.00 | 0.00 | 0.00 | 77 | 1012.4 |
| 20260506103015 | 65 | 68 | 0.9 | 6.1 | 0.00 | 0.00 | 0.00 | 77 | 1012.6 |
| 20260506102015 | 65 | 68 | 0.9 | 2.6 | 0.00 | 0.00 | 0.00 | 77 | 1012.7 |
| 20260506101016 | 65 | 90 | 0.9 | 3.5 | 0.00 | 0.00 | 0.00 | 77 | 1012.5 |
| 20260506100016 | 65 | 293 | 0.9 | 4.3 | 0.00 | 0.00 | 0.00 | 77 | 1012.6 |
| 20260506095016 | 65 | 90 | 0.9 | 2.6 | 0.00 | 0.00 | 0.00 | 78 | 1012.5 |
| 20260506094016 | 65 | 293 | 0.9 | 5.2 | 0.00 | 0.00 | 0.00 | 78 | 1012.5 |
| 20260506093016 | 65 | 45 | 1.7 | 6.1 | 0.00 | 0.00 | 0.00 | 78 | 1012.4 |
| 20260506092016 | 65 | 113 | 0.9 | 5.2 | 0.00 | 0.00 | 0.00 | 78 | 1012.4 |
| 20260506091035 | 65 | 68 | 1.7 | 6.1 | 0.00 | 0.00 | 0.00 | 78 | 1012.4 |
| 20260506090035 | 65 | 270 | 0.9 | 5.2 | 0.00 | 0.00 | 0.00 | 78 | 1012.5 |
| 20260506085015 | 65 | 270 | 0.9 | 6.1 | 0.00 | 0.00 | 0.00 | 78 | 1012.6 |
| 20260506084016 | 65 | 0.0 | 1.7 | 0.00 | 0.00 | 0.00 | 78 | 1012.6 | |
| 20260506083016 | 65 | 293 | 0.9 | 4.3 | 0.00 | 0.00 | 0.00 | 78 | 1012.9 |
| 20260506082016 | 65 | 68 | 0.9 | 5.2 | 0.00 | 0.00 | 0.00 | 78 | 1012.9 |
| 20260506081016 | 65 | 23 | 0.9 | 2.6 | 0.00 | 0.00 | 0.00 | 77 | 1012.8 |
| 20260506073015 | 66 | 338 | 0.9 | 3.5 | 0.00 | 0.00 | 0.00 | 75 | 1013.0 |
| 20260506072015 | 66 | 270 | 0.9 | 4.3 | 0.00 | 0.00 | 0.00 | 75 | 1013.0 |
| 20260506071015 | 66 | 0 | 1.7 | 7.8 | 0.00 | 0.00 | 0.00 | 74 | 1013.1 |
| 20260506062015 | 67 | 45 | 1.7 | 7.0 | 0.00 | 0.00 | 0.00 | 73 | 1013.3 |
| 20260506061036 | 68 | 90 | 1.7 | 5.2 | 0.00 | 0.00 | 0.00 | 73 | 1013.1 |
| 20260506051015 | 69 | 68 | 1.7 | 8.7 | 0.00 | 0.00 | 0.00 | 70 | 1013.6 |
| 20260506045015 | 69 | 113 | 0.9 | 5.2 | 0.00 | 0.00 | 0.00 | 69 | 1013.8 |
| 20260506044015 | 70 | 90 | 0.9 | 4.3 | 0.00 | 0.00 | 0.00 | 67 | 1013.9 |
| 20260506043016 | 70 | 0 | 0.9 | 3.5 | 0.00 | 0.00 | 0.00 | 66 | 1013.9 |
| 20260506042015 | 71 | 338 | 0.9 | 3.5 | 0.00 | 0.00 | 0.00 | 65 | 1013.8 |
| 20260506041015 | 71 | 90 | 1.7 | 7.0 | 0.00 | 0.00 | 0.00 | 64 | 1013.8 |
| 20260506040015 | 71 | 68 | 1.7 | 6.1 | 0.00 | 0.00 | 0.00 | 63 | 1013.8 |
| 20260506035037 | 72 | 90 | 2.6 | 6.1 | 0.00 | 0.00 | 0.00 | 63 | 1013.8 |
| 20260506034017 | 72 | 90 | 1.7 | 7.8 | 0.00 | 0.00 | 0.00 | 62 | 1013.8 |
| 20260506033015 | 72 | 270 | 1.7 | 5.2 | 0.00 | 0.00 | 0.00 | 62 | 1013.9 |
| 20260506032017 | 72 | 90 | 1.7 | 6.1 | 0.00 | 0.00 | 0.00 | 61 | 1013.8 |
| 20260506031015 | 72 | 90 | 2.6 | 9.6 | 0.00 | 0.00 | 0.00 | 61 | 1013.8 |
| 20260506030017 | 73 | 0 | 0.9 | 6.1 | 0.00 | 0.00 | 0.00 | 60 | 1013.6 |
| 20260506025017 | 73 | 338 | 1.7 | 4.3 | 0.00 | 0.00 | 0.00 | 60 | 1013.7 |
| 20260506024017 | 73 | 23 | 0.9 | 3.5 | 0.00 | 0.00 | 0.00 | 59 | 1013.7 |
| 20260506023017 | 73 | 90 | 0.9 | 4.3 | 0.00 | 0.00 | 0.00 | 59 | 1013.7 |
| 20260506022017 | 73 | 293 | 1.7 | 4.3 | 0.00 | 0.00 | 0.00 | 58 | 1013.7 |
| 20260506021017 | 74 | 270 | 0.9 | 6.1 | 0.00 | 0.00 | 0.00 | 57 | 1013.6 |
| 20260506020017 | 74 | 270 | 0.9 | 5.2 | 0.00 | 0.00 | 0.00 | 57 | 1013.5 |
| 20260506015017 | 74 | 0 | 1.7 | 10.4 | 0.00 | 0.00 | 0.00 | 56 | 1013.5 |
| 20260506014037 | 75 | 113 | 1.7 | 7.0 | 0.00 | 0.00 | 0.00 | 56 | 1013.4 |
| 20260506013017 | 75 | 293 | 1.7 | 7.8 | 0.00 | 0.00 | 0.00 | 55 | 1013.3 |
| 20260506012037 | 75 | 293 | 0.9 | 4.3 | 0.00 | 0.00 | 0.00 | 54 | 1013.2 |
| 20260506011017 | 75 | 0 | 1.7 | 6.1 | 0.00 | 0.00 | 0.00 | 54 | 1013.0 |
| 20260506010016 | 76 | 315 | 1.7 | 4.3 | 0.00 | 0.00 | 0.00 | 53 | 1013.1 |
| 20260506005038 | 76 | 338 | 1.7 | 7.0 | 0.00 | 0.00 | 0.00 | 53 | 1013.0 |
| 20260506004017 | 76 | 293 | 0.9 | 3.5 | 0.00 | 0.00 | 0.00 | 52 | 1012.8 |
| 20260506003017 | 77 | 23 | 0.9 | 3.5 | 0.00 | 0.00 | 0.00 | 51 | 1012.8 |
| 20260506002017 | 77 | 113 | 0.9 | 3.5 | 0.00 | 0.00 | 0.00 | 50 | 1012.7 |
| 20260506001017 | 77 | 90 | 1.7 | 6.1 | 0.00 | 0.00 | 0.00 | 49 | 1012.6 |
| 20260506000017 | 78 | 338 | 1.7 | 4.3 | 0.00 | 0.00 | 0.00 | 49 | 1012.5 |
| 20260505235017 | 78 | 90 | 1.7 | 3.5 | 0.00 | 0.00 | 0.00 | 48 | 1012.4 |
| 20260505234017 | 78 | 90 | 0.9 | 3.5 | 0.00 | 0.00 | 0.00 | 47 | 1012.4 |
| 20260505233016 | 79 | 90 | 1.7 | 4.3 | 0.00 | 0.00 | 0.00 | 46 | 1012.4 |
| 20260505232037 | 79 | 90 | 0.9 | 2.6 | 0.00 | 0.00 | 0.00 | 45 | 1012.4 |
| 20260505231017 | 80 | 338 | 0.9 | 6.1 | 0.00 | 0.00 | 0.00 | 44 | 1012.3 |
| 20260505230017 | 80 | 90 | 0.9 | 3.5 | 0.00 | 0.00 | 0.00 | 43 | 1012.4 |
| 20260505225017 | 81 | 270 | 0.9 | 3.5 | 0.00 | 0.00 | 0.00 | 40 | 1012.4 |
| 20260505224036 | 81 | 270 | 1.7 | 6.1 | 0.00 | 0.00 | 0.00 | 39 | 1012.4 |
| 20260505223017 | 82 | 0 | 2.6 | 7.8 | 0.00 | 0.00 | 0.00 | 39 | 1012.4 |
| 20260505222017 | 82 | 90 | 1.7 | 5.2 | 0.00 | 0.00 | 0.00 | 39 | 1012.4 |
| 20260505221017 | 82 | 270 | 2.6 | 10.4 | 0.00 | 0.00 | 0.00 | 37 | 1012.5 |
| 20260505220017 | 83 | 338 | 1.7 | 7.0 | 0.00 | 0.00 | 0.00 | 37 | 1012.3 |
| 20260505215017 | 83 | 293 | 1.7 | 6.1 | 0.00 | 0.00 | 0.00 | 36 | 1012.3 |
| 20260505214016 | 82 | 293 | 2.6 | 9.6 | 0.00 | 0.00 | 0.00 | 36 | 1012.3 |
| 20260505213016 | 83 | 270 | 5.2 | 12.2 | 0.00 | 0.00 | 0.00 | 34 | 1012.3 |
| 20260505212016 | 84 | 0 | 2.6 | 7.0 | 0.00 | 0.00 | 0.00 | 35 | 1012.1 |
| 20260505211017 | 84 | 0 | 3.5 | 8.7 | 0.00 | 0.00 | 0.00 | 35 | 1012.2 |
| 20260505210017 | 84 | 90 | 3.5 | 12.2 | 0.00 | 0.00 | 0.00 | 35 | 1012.3 |
| 20260505205017 | 84 | 315 | 2.6 | 8.7 | 0.00 | 0.00 | 0.00 | 35 | 1012.4 |
| 20260505204017 | 84 | 270 | 2.6 | 8.7 | 0.00 | 0.00 | 0.00 | 35 | 1012.1 |
| 20260505203016 | 85 | 293 | 4.3 | 11.3 | 0.00 | 0.00 | 0.00 | 34 | 1012.1 |
| 20260505202016 | 86 | 270 | 2.6 | 6.1 | 0.00 | 0.00 | 0.00 | 34 | 1012.2 |
| 20260505201016 | 85 | 270 | 3.5 | 11.3 | 0.00 | 0.00 | 0.00 | 33 | 1012.4 |
| 20260505200017 | 86 | 293 | 3.5 | 7.0 | 0.00 | 0.00 | 0.00 | 33 | 1012.5 |
| 20260505195016 | 86 | 68 | 4.3 | 17.4 | 0.00 | 0.00 | 0.00 | 32 | 1012.7 |
| 20260505194016 | 86 | 45 | 2.6 | 8.7 | 0.00 | 0.00 | 0.00 | 35 | 1012.7 |
| 20260505193016 | 86 | 293 | 1.7 | 6.1 | 0.00 | 0.00 | 0.00 | 35 | 1012.8 |
| 20260505192016 | 86 | 293 | 3.5 | 15.6 | 0.00 | 0.00 | 0.00 | 33 | 1013.0 |